Location: Rosenheim
(47.8408°N, 12.2113°E)
Time: 17:01:52
(UTC+01:00)

ISS - Pass Details

Date: 29 March 2017
Orbit: 399 x 409 km, 51.6° (Epoch: 25 March)

Event Time Altitude Azimuth Distance (km) Brightness Sun altitude
Rises 21:40:00 0° 248° (WSW) 2,308 0.5 -20.3°
Reaches altitude 10° 21:42:04 10° 249° (WSW) 1,453 -0.5 -20.6°
Enters shadow 21:44:52 62° 261° (W) 457 -3.5 -21.0°
